Date String (YYYY-MM-DD hh:mm:ss) UTC,Instrument flags,Ambient pressure (hPa),Sample flow (lpm),Bypass flow (lpm),Sample temperature (°C),Ambient temperature (°C),ASC tube jacket temperature (°C),LED temperature (°C),Box temperature (°C),Sample RH (%),Span deviation,Mass concentration (μg/m³),Mass concentration (μg/m³),Mass concentration (μg/m³)
DateTimeUTC,F1_M11,P_M11,Q1_M11,Q2_M11,T1_M11,T2_M11,T3_M11,T4_M11,T5_M11,U1_M11,ZSPAN_M11,X2_M11,X0_M11,X1_M11
2022-03-20 14:00:00,,0819.5,5.01,0.00,22.9,21.9,00.0,32.0,24.7,08.5,0000.0,0004.15,0009.32,0002.42
2022-03-20 14:01:00,,0819.6,4.99,0.00,22.9,22.0,00.0,32.0,24.7,08.6,0000.0,0004.15,0010.07,0002.43
2022-03-20 14:02:00,,0819.5,5.00,0.00,23.0,22.0,00.0,32.0,24.7,08.7,0000.0,0004.10,0010.27,0002.44
2022-03-20 14:03:00,,0819.5,5.00,0.00,23.0,22.0,00.0,32.0,24.7,08.8,0000.0,0004.13,0010.41,0002.44
2022-03-20 14:04:00,,0819.5,5.00,0.00,23.0,22.0,00.0,32.0,24.7,08.9,0000.0,0004.16,0010.79,0002.44
2022-03-20 14:05:00,,0819.5,5.00,0.00,23.0,22.0,00.0,32.0,24.7,08.9,0000.0,0004.17,0010.79,0002.44
2022-03-20 14:06:00,,0819.5,5.00,0.00,23.0,22.0,00.0,32.0,24.7,09.1,0000.0,0004.19,0010.96,0002.43
2022-03-20 14:07:00,,0819.6,5.00,0.00,23.0,22.0,00.0,32.0,24.7,08.9,0000.0,0004.19,0010.99,0002.41
2022-03-20 14:08:00,,0819.6,5.00,0.00,23.0,22.0,00.0,32.0,24.7,08.6,0000.0,0004.14,0011.13,0002.41
2022-03-20 14:09:00,,0819.5,5.01,0.00,22.9,22.0,00.0,32.0,24.7,09.0,0000.0,0004.10,0011.04,0002.41
2022-03-20 14:10:00,,0819.5,5.00,0.00,22.9,22.0,00.0,32.0,24.6,09.2,0000.0,0004.15,0011.14,0002.42
2022-03-20 14:11:00,,0819.5,4.99,0.00,22.9,21.9,00.0,32.0,24.6,08.8,0000.0,0004.14,0011.02,0002.42
2022-03-20 14:12:00,,0819.5,5.01,0.00,22.9,21.9,00.0,32.0,24.6,09.0,0000.0,0004.12,0010.83,0002.42
2022-03-20 14:13:00,,0819.5,5.00,0.00,22.9,21.9,00.0,31.9,24.6,09.1,0000.0,0004.11,0010.37,0002.42
2022-03-20 14:14:00,,0819.5,5.00,0.00,22.9,21.9,00.0,31.9,24.6,09.0,0000.0,0004.07,0010.09,0002.40
2022-03-20 14:15:00,,0819.5,5.01,0.00,22.9,22.0,00.0,31.9,24.7,08.8,0000.0,0004.04,0009.64,0002.40
2022-03-20 14:16:00,,0819.5,5.00,0.00,22.9,22.0,00.0,31.9,24.7,08.7,0000.0,0004.06,0009.73,0002.41
2022-03-20 14:17:00,,0819.5,4.99,0.00,22.9,22.0,00.0,31.9,24.8,08.7,0000.0,0004.07,0009.73,0002.43
2022-03-20 14:18:00,,0819.5,5.00,0.00,22.9,22.0,00.0,31.9,24.8,08.7,0000.0,0004.11,0009.80,0002.46
2022-03-20 14:19:00,,0819.5,4.99,0.00,23.0,22.1,00.0,31.9,24.8,08.9,0000.0,0004.15,0009.65,0002.49
2022-03-20 14:20:00,,0819.4,5.00,0.00,23.0,22.1,00.0,31.9,24.8,09.2,0000.0,0004.17,0009.69,0002.51
2022-03-20 14:21:00,,0819.5,5.02,0.00,23.0,22.1,00.0,31.9,24.8,09.0,0000.0,0004.19,0009.78,0002.55
2022-03-20 14:22:00,,0819.5,5.00,0.00,23.0,22.1,00.0,31.9,24.8,09.2,0000.0,0004.25,0009.88,0002.56
2022-03-20 14:23:00,,0819.5,5.00,0.00,23.0,22.1,00.0,32.0,24.8,09.5,0000.0,0004.27,0009.36,0002.56
2022-03-20 14:24:00,,0819.5,4.99,0.00,23.0,22.1,00.0,32.0,24.8,09.7,0000.0,0004.35,0009.64,0002.58
2022-03-20 14:25:00,,0819.5,5.01,0.00,23.0,22.2,00.0,32.0,24.8,09.9,0000.0,0004.36,0009.68,0002.60
2022-03-20 14:26:00,,0819.5,5.00,0.00,23.1,22.2,00.0,32.0,24.9,09.8,0000.0,0004.35,0009.72,0002.60
2022-03-20 14:27:00,,0819.4,4.99,0.00,23.1,22.2,00.0,32.0,24.9,09.6,0000.0,0004.26,0009.47,0002.59
2022-03-20 14:28:00,,0819.5,4.99,0.00,23.1,22.2,00.0,32.0,24.9,09.4,0000.0,0004.20,0009.25,0002.60
2022-03-20 14:29:00,,0819.5,4.99,0.00,23.1,22.2,00.0,32.0,24.9,08.8,0000.0,0004.18,0009.15,0002.59
2022-03-20 14:30:00,,0819.4,5.00,0.00,23.1,22.2,00.0,32.0,24.9,08.5,0000.0,0004.19,0009.21,0002.58
2022-03-20 14:31:00,,0819.4,5.00,0.00,23.1,22.2,00.0,32.0,24.9,08.5,0000.0,0004.22,0009.33,0002.58
2022-03-20 14:32:00,,0819.5,5.00,0.00,23.1,22.2,00.0,32.0,24.9,08.6,0000.0,0004.22,0009.49,0002.57
2022-03-20 14:33:00,,0819.5,4.99,0.00,23.1,22.3,00.0,32.0,24.9,08.7,0000.0,0004.23,0009.61,0002.58
2022-03-20 14:34:00,,0819.4,5.00,0.00,23.1,22.3,00.0,32.0,24.9,09.2,0000.0,0004.26,0009.75,0002.60
2022-03-20 14:35:00,,0819.4,5.00,0.00,23.1,22.3,00.0,32.1,24.9,09.5,0000.0,0004.24,0009.77,0002.61
2022-03-20 14:36:00,,0819.4,5.01,0.00,23.1,22.3,00.0,32.1,24.9,09.3,0000.0,0004.28,0010.24,0002.61
2022-03-20 14:37:00,,0819.4,5.00,0.00,23.1,22.3,00.0,32.1,24.9,10.2,0000.0,0004.36,0011.52,0002.62
2022-03-20 14:38:00,,0819.4,5.00,0.00,23.2,22.3,00.0,32.1,24.9,10.6,0000.0,0004.43,0012.32,0002.62
2022-03-20 14:39:00,,0819.4,5.00,0.00,23.2,22.3,00.0,32.1,25.0,10.4,0000.0,0004.50,0012.58,0002.62
2022-03-20 14:40:00,,0819.4,5.00,0.00,23.2,22.3,00.0,32.1,25.0,10.2,0000.0,0004.51,0012.65,0002.61
2022-03-20 14:41:00,,0819.4,4.99,0.00,23.2,22.3,00.0,32.1,25.0,10.2,0000.0,0004.49,0012.58,0002.60
2022-03-20 14:42:00,,0819.4,4.99,0.00,23.2,22.3,00.0,32.1,25.0,10.5,0000.0,0004.50,0012.51,0002.61
2022-03-20 14:43:00,,0819.4,5.01,0.00,23.2,22.3,00.0,32.1,25.0,10.3,0000.0,0004.50,0012.41,0002.60
2022-03-20 14:44:00,,0819.4,4.99,0.00,23.2,22.3,00.0,32.1,25.0,10.4,0000.0,0004.48,0012.28,0002.59
2022-03-20 14:45:00,,0819.4,4.99,0.00,23.2,22.3,00.0,32.1,25.0,10.4,0000.0,0004.42,0012.67,0002.58
2022-03-20 14:46:00,,0819.4,5.00,0.00,23.2,22.3,00.0,32.2,25.0,10.2,0000.0,0004.38,0013.04,0002.58
2022-03-20 14:47:00,,0819.4,5.00,0.00,23.2,22.3,00.0,32.2,25.0,10.1,0000.0,0004.36,0012.80,0002.60
2022-03-20 14:48:00,,0819.3,4.98,0.00,23.2,22.3,00.0,32.2,25.0,10.4,0000.0,0004.30,0011.77,0002.61
2022-03-20 14:49:00,,0819.3,5.01,0.00,23.2,22.3,00.0,32.2,25.0,10.2,0000.0,0004.33,0011.09,0002.66
2022-03-20 14:50:00,,0819.2,4.99,0.00,23.2,22.4,00.0,32.2,25.0,10.5,0000.0,0004.36,0011.15,0002.70
2022-03-20 14:51:00,,0819.2,4.99,0.00,23.2,22.4,00.0,32.2,25.0,10.3,0000.0,0004.43,0011.30,0002.74
2022-03-20 14:52:00,,0819.2,5.00,0.00,23.3,22.4,00.0,32.2,25.1,10.2,0000.0,0004.50,0011.44,0002.74
2022-03-20 14:53:00,,0819.2,5.00,0.00,23.3,22.4,00.0,32.2,25.1,10.3,0000.0,0004.44,0011.38,0002.74
2022-03-20 14:54:00,,0819.2,4.99,0.00,23.3,22.4,00.0,32.2,25.1,10.8,0000.0,0004.42,0011.69,0002.76
2022-03-20 14:55:00,,0819.2,5.00,0.00,23.3,22.4,00.0,32.2,25.1,10.6,0000.0,0004.44,0011.63,0002.78
2022-03-20 14:56:00,,0819.2,5.02,0.00,23.3,22.4,00.0,32.2,25.1,10.5,0000.0,0004.44,0010.99,0002.78
2022-03-20 14:57:00,,0819.2,4.99,0.00,23.3,22.5,00.0,32.2,25.1,10.5,0000.0,0004.43,0010.39,0002.78
2022-03-20 14:58:00,,0819.3,5.00,0.00,23.3,22.5,00.0,32.2,25.1,10.8,0000.0,0004.46,0010.35,0002.79
2022-03-20 14:59:00,,0819.3,4.99,0.00,23.3,22.5,00.0,32.2,25.1,10.7,0000.0,0004.46,0010.16,0002.77
